Location: Presov
(49.0000°N, 21.2500°E)
Time: 00:44:25
(UTC+02:00)

Envisat - Visible Passes

Search period start: 21 June 2025 00:00
Search period end: 01 July 2025 00:00
Orbit: 761 x 763 km, 98.3° (Epoch: 20 June)

Date Brightness Start Highest point End Pass type
(mag) Time Alt. Az. Time Alt. Az. Time Alt. Az.
21 Jun 4.4 02:50:14 10° NNE 02:54:51 34° E 02:59:26 10° SSE visible
22 Jun 5.3 02:13:32 10° NE 02:16:47 17° E 02:20:00 10° SE visible
23 Jun 3.6 03:13:34 10° NNE 03:18:34 54° E 03:23:30 10° S visible
24 Jun 4.7 02:36:22 10° NE 02:40:37 26° E 02:44:51 10° SSE visible
25 Jun 5.5 02:00:17 10° ENE 02:02:28 13° E 02:04:38 10° ESE visible
25 Jun 3.1 03:37:04 10° NNE 03:42:11 85° ESE 03:47:14 10° SSW visible
26 Jun 4.1 02:59:34 10° NNE 03:04:22 41° E 03:09:09 10° SSE visible
27 Jun 5.1 02:22:37 10° NE 02:26:21 20° E 02:30:04 10° SE visible
28 Jun 3.3 03:22:58 10° NNE 03:28:02 66° ESE 03:33:04 10° S visible
29 Jun 4.5 02:45:38 10° NNE 02:50:09 31° E 02:54:38 10° SSE visible
30 Jun 5.4 02:09:04 10° NE 02:12:03 15° E 02:15:00 10° SE visible
30 Jun 3.0 03:46:32 10° NNE 03:51:37 80° WNW 03:56:41 10° SSW visible
